Regional Weather Roundup
Issued by NWS

Home | Current Version | Previous Version | Graphics & Text | Print | Product List | Glossary On
Versions: 1 2 3 4 5 6 7 8 9 10 11 12 13 14 15 16 17 18 19 20 21 22 23 24 25 26 27 28 29 30 31 32 33 34 35 36 37 38 39 40 41 42 43 44 45 46 47 48 49 50
000
ASUS43 KDMX 262003
RWRIA

WEATHER ROUNDUP FOR IOWA
NATIONAL WEATHER SERVICE DES MOINES IA
300 PM CDT FRI AUG 26 2016

NOTE: "FAIR" INDICATES FEW OR NO CLOUDS BELOW 12,000 FEET WITH NO
SIGNIFICANT WEATHER AND/OR OBSTRUCTIONS TO VISIBILITY.

* - THESE STATIONS ARE NOT NWS STATIONS...THUS NOT UNDER NWS
QUALITY CONTROL.  THEY ALSO DO NOT REPORT WEATHER SUCH
AS PRECIPITATION OR FOG.

IAZ001>003-012>014-020>022-031>034-043>046-262100-
   NORTHWEST IOWA

CITY           SKY/WX    TMP DP  RH WIND       PRES   REMARKS
CARROLL *      CLOUDY    68  64  88 S6        30.13F
CHEROKEE *     CLOUDY    71  61  69 SE7       30.14S
DENISON *      CLOUDY    68  63  83 S9        30.11F HAZE
LE MARS *      CLOUDY    72  59  64 E7        30.13F
ORANGE CITY *  CLOUDY    70  61  73 SE6       30.14F
SHELDON *      CLOUDY    70  61  73 SE6       30.14S
SIOUX CITY     CLOUDY    74  59  59 E10       30.11F
SPENCER        CLOUDY    70  57  63 SE9       30.15F
STORM LAKE *     N/A     68  61  77 SE10      30.15S
$$

IAZ055>058-069>071-079>083-090>094-262100-
   SOUTHWEST IOWA

CITY           SKY/WX    TMP DP  RH WIND       PRES   REMARKS
ATLANTIC *     CLOUDY    68  63  83 NE5       30.11F
AUDUBON *      LGT RAIN  68  63  83 CALM      30.14F
CLARINDA *       N/A     70  66  88 MISG      30.11F
COUNCIL BLFS * MOSUNNY   68  64  88 E8        30.10F
CRESTON *      CLOUDY    70  66  88 NE6       30.12F
HARLAN  *      CLOUDY    66  64  94 E5        30.15F
LAMONI         CLOUDY    74  66  76 CALM      30.09F
RED OAK *      CLOUDY    70  63  78 E9        30.10F
SHENANDOAH *   CLOUDY    70 -38   1 SE7       30.09F
$$

IAZ047>049-059>061-072>074-084-262100-
   CENTRAL IOWA

CITY           SKY/WX    TMP DP  RH WIND       PRES   REMARKS
AMES           CLOUDY    71  64  78 NE7       30.11F
ANKENY *         N/A    N/A N/A N/A MISG        N/A
BOONE *        CLOUDY    68  63  83 NE7       30.11F
CHARITON *       N/A     75  64  69 MISG      30.10F
DES MOINES     CLOUDY    72  64  76 E8        30.11R
GRINNELL*      CLOUDY    73  61  65 E8        30.12F
KNOXVILLE *    PTSUNNY   75  63  64 E8        30.09S
MARSHALLTOWN   CLOUDY    68  64  87 NE6       30.13F
NEWTON *       PTSUNNY   72  66  83 NE9       30.11F
PELLA *        CLOUDY   N/A N/A N/A E3        30.12F
PERRY *        PTSUNNY   70  65  83 E3        30.13S
$$

IAZ004>006-015-016-023>025-035-036-262100-
   NORTH CENTRAL IOWA

CITY           SKY/WX    TMP DP  RH WIND       PRES   REMARKS
ALGONA *       CLOUDY    68  59  73 SE6G12    30.16S
ESTHERVILLE    CLOUDY    67  59  75 SE6       30.15F
FORT DODGE *   CLOUDY    70  61  73 E9        30.15F
MASON CITY     CLOUDY    69  58  67 SE5       30.17F
FOREST CITY *    N/A    N/A N/A N/A MISG        N/A
WEBSTER CITY * CLOUDY    70  63  78 E7        30.12F
IOWA FALLS *     N/A     70  60  71 E8        30.16F
$$

IAZ007>011-017>019-026>030-037>042-050>054-066-262100-
   NORTHEAST IOWA

CITY           SKY/WX    TMP DP  RH WIND       PRES   REMARKS
CEDAR RAPIDS   CLOUDY    75  64  68 E6        30.12F
CHARLES CITY * CLOUDY    70  59  68 CALM      30.17F
CLINTON *      CLOUDY    77  65  66 NE9       30.12
DECORAH *      CLOUDY    70  57  64 CALM      30.17R
DUBUQUE        CLOUDY    73  60  63 E6        30.15F
MONTICELLO *   MOSUNNY   75  61  60 E5        30.13F
OELWEIN *      CLOUDY    68  61  77 NE5       30.17F
WATERLOO       CLOUDY    68  59  73 E6        30.14F
$$

IAZ064-065-067-068-078-262100-
   EAST CENTRAL IOWA

CITY           SKY/WX    TMP DP  RH WIND       PRES   REMARKS
DAVENPORT      PTSUNNY   78  63  59 E9        30.12F HX  80
IOWA CITY      PTSUNNY   77  63  61 E7        30.12F
MT. PLEASANT * HAZE      81  64  55 E8        30.09F VSB 3/4 HX  82
MUSCATINE *    MOSUNNY   79  63  57 SE5G14    30.10F HX  80
QUAD CITIES    CLOUDY    78  64  61 E8        30.10F HX  80
$$

IAZ062-063-075>077-085>089-095>099-262100-
   SOUTHEAST IOWA

CITY           SKY/WX    TMP DP  RH WIND       PRES   REMARKS
BURLINGTON     CLOUDY    79  66  64 E8        30.09F HX  81
FAIRFIELD *    CLOUDY    77  63  61 E9        30.09F
FORT MADISON *   N/A     79  66  65 E5        30.10F HX  81
KEOKUK *       CLOUDY    77  68  73 E5        30.08F
OSKALOOSA *      N/A     75  65  71 E8        30.10S
CENTERVILLE *    N/A     77  66  69 E6        30.10F
OTTUMWA        PTSUNNY   76  64  66 E8        30.09F
WASHINGTON *   PTSUNNY   77  66  69 E10       30.12F
$$

ABBREVIATIONS USED IN REMARKS
   TC - TEMPERATURES IN CELSIUS
  WCI - WIND CHILL INDEX
   HX - HEAT INDEX
  VSB - VISIBILITY
$$





USA.gov is the U.S. government's official web portal to all federal, state and local government web resources and services.